星链-5191 (STARLINK-5191 )

导读 | 星芒AI

STARLINK-5191 是 SpaceX Starlink 项目中的一颗低轨通信卫星,属于第 5 批部署的星链卫星群。该卫星于 2020 年 11 月 19 日由猎鹰 9 号火箭发射升空,运行在约 550 公里的轨道高度,旨在为全球提供高速互联网服务。作为星链计划的一部分,STARLINK-5191 采用先进通信技术,支持低延迟、高带宽的数据传输,助力偏远地区实现网络覆盖。

基本信息
目录编号:
54763
目录名称:
STARLINK-5191
国际标识:
2022-175F
轨道中心:
EARTH
卫星名称:
星链-5191
卫星全名:
星链-5191 (STARLINK-5191 )
卫星状态:
在轨 (已飞行1053 天)
发射日期:
2022-12-17 UTC
国别 :
美国 (US)
星等 :
--
轨道信息
数据来源 国际轨道数据
星历时间: 2025-11-04T11:26:22+0800
18小时前
查看轨道信息
半长轴: 6917.899km
偏心率: 0.000145
轨道倾角: 53.220°
近地点辐角 94.572°
升交点赤经 247.874°
平近点角 265.544°
近地点: 538.76km
远地点: 540.768km
周期: 95.438分钟
每日圈数: 15.088341
详细信息
固有亮度:
5
最大亮度:
2.5
卫星平台:
Starlink v1.5
覆盖范围:
全球
运营商:
太空探索技术公司
运营商所在国:
美国
制造商(研发单位):
太空探索技术公司
制造商所在国:
美国
使用方式:
暂无
卫星简介
星链(Starlink)计划是由太空探索技术公司(SpaceX)提出的一个巨型低轨卫星互联网星座项目,计划在2019年至2024年间在太空搭建由约1.2万颗卫星组成的“星链”网络,其中1584颗将部署在地球上空550千米处的近地轨道,并从2020年开始工作。该卫星仍在工作。
2D轨道图
3D轨道图
轨道高度分析图
轨道倾角分析图
轨道综合分析图
查看轨道综合分析图